Regional Weather Roundup
Issued by NWS

Home | Current Version | Previous Version | Graphics & Text | Print | Product List | Glossary On
Versions: 1 2 3 4 5 6 7 8 9 10 11 12 13 14 15 16 17 18 19 20 21 22 23 24 25 26 27 28 29 30 31 32 33 34 35 36 37 38 39 40 41 42 43 44 45 46 47 48 49 50
000
ASUS43 KLMK 192102
RWRKY
KENTUCKY REGIONAL WEATHER ROUNDUP
NATIONAL WEATHER SERVICE LOUISVILLE KY
400 PM EST SUN NOV 19 2017

NOTE "FAIR" INDICATES FEW OR NO CLOUDS BELOW 12,000 FEET
WITH NO SIGNIFICANT WEATHER AND/OR OBSTRUCTIONS TO VISIBILITY.

KYZ001>023-026-027-061>063-070>075-192200-
WESTERN AND SOUTH CENTRAL KENTUCKY

CITY           SKY/WX    TMP DP  RH WIND       PRES   REMARKS
PADUCAH        SUNNY     45  22  40 NW9       30.19F
HENDERSON      SUNNY     41  23  48 W15       30.18S
OWENSBORO      NOT AVBL
HOPKINSVILLE   SUNNY     44  22  41 NW16      30.17R
BOWLING GREEN  SUNNY     45  24  43 NW8G18    30.16R
GLASGOW        NOT AVBL
$$

KYZ024-025-028>034-038-045-046-053-192200-
NORTH CENTRAL KENTUCKY

CITY           SKY/WX    TMP DP  RH WIND       PRES   REMARKS
LOUISVILLE/SDF MOSUNNY   41  25  53 W14       30.12R
LOUISVILLE/LOU SUNNY     40  26  57 W12G23    30.12R WCI  33
FORT KNOX      MOSUNNY   39  25  56 W10       30.11R WCI  33
$$

KYZ035>037-039>044-047>052-055>060-089>105-192200-
NORTHEAST KENTUCKY

CITY           SKY/WX    TMP DP  RH WIND       PRES   REMARKS
LEXINGTON      CLOUDY    38  28  67 W14G21    30.09R WCI  30
COVINGTON      PTSUNNY   38  27  64 W15G24    30.05R WCI  29
FRANKFORT      CLOUDY    38  26  62 W7G20     30.09R WCI  33
$$

KYZ054-064>069-076>088-106>120-192200-
SOUTHEAST KENTUCKY

CITY           SKY/WX    TMP DP  RH WIND       PRES   REMARKS
JACKSON        CLOUDY    38  29  70 VRB7      30.03R WCI  33
LONDON         CLOUDY    40  29  64 W10       30.07R WCI  33
SOMERSET       NOT AVBL
MIDDLESBORO    CLOUDY    43  30  61 NW8       30.07R
MONTICELLO     CLOUDY    41  29  62 W10       30.13R
$$




USA.gov is the U.S. government's official web portal to all federal, state and local government web resources and services.